Flag for Germany Weather past 2 weeks in Westerland, Schleswig-Holstein, Germany

Now
57 °F

Passing clouds.


Feels Like: 55 °F
Forecast: 60 / 64 °F
Wind: 9 mph from Southwest

Location: List / Sylt

Current Time: Sep 3, 2015 at 2:53:39 AM

Latest Report: Sep 3, 2015 at 2:00 AM


Visibility: 41 mi

Pressure: 29.84 "Hg

Humidity: 78%

Dew point: 50 °F

Location of WesterlandLocation

Historic Weather in Westerland — Graph

°F

Westerland temperature yesterday

Maximum temperature yesterday: 63 °F (at 4:00 PM)
Minimum temperature yesterday: 58 °F (at 11:00 PM)
Average temperature yesterday: 61 °F

Past Weeks' High & Low Weather Summary

 TemperatureHumidityPressure
High77 °F (Aug 22, 3:00 PM)100% (Aug 31, 10:00 PM)30.28 "Hg (Aug 31, 10:00 PM)
Low57 °F (Sep 3, 1:00 AM)46% (Aug 22, 3:00 PM)29.55 "Hg (Aug 24, 10:00 PM)
Average64 °F81%29.96 "Hg
* Reported Aug 19 1:00 AM — Sep 3 1:00 AM, Westerland, Weather by CustomWeather, © 2015

Note: Actual official high and low records may vary slightly from our data, if they occured in-between our weather recording intervals... More about our weather records

Advertising

Westerland weather history for previous 24 hours

 ConditionsComfort  
Time TempWeatherWind HumidityBarometerVisibility
1:00 AM
Thu, Sep 3
57 °FPassing clouds.10 mph81%29.84 "Hg28 mi
11:00 PM
Wed, Sep 2
58 °FPassing clouds.9 mph75%29.84 "Hg34 mi
10:00 PM59 °FPassing clouds.10 mph75%29.84 "Hg34 mi
9:00 PM59 °FPassing clouds.12 mph75%29.84 "Hg31 mi
8:00 PM59 °FPassing clouds.12 mph70%29.83 "Hg43 mi
7:00 PM60 °FPartly sunny.13 mph70%29.83 "Hg11 mi
6:00 PM61 °FScattered clouds.13 mph70%29.83 "Hg6 mi
4:00 PM63 °FPassing clouds.13 mph67%29.82 "Hg4 mi
3:00 PM62 °FPartly sunny.13 mph69%29.82 "Hg5 mi
2:00 PM63 °FPassing clouds.15 mph67%29.81 "Hg3 mi
1:00 PM63 °FScattered clouds.14 mph70%29.81 "Hg4 mi
12:00 PM63 °FPassing clouds.14 mph67%29.79 "Hg6 mi
11:00 AM62 °FScattered clouds.15 mph69%29.78 "Hg9 mi
10:00 AM62 °FScattered clouds.15 mph72%29.76 "Hg7 mi
9:00 AM61 °FScattered clouds.14 mph70%29.76 "Hg5 mi
8:00 AM59 °FPassing clouds.14 mph73%29.76 "Hg14 mi
7:00 AM59 °FOvercast.14 mph76%29.76 "Hg25 mi
6:00 AM60 °FPassing clouds.14 mph76%29.76 "Hg28 mi
5:00 AM60 °FPassing clouds.13 mph75%29.77 "Hg25 mi
4:00 AM60 °FPassing clouds.13 mph75%29.77 "Hg22 mi
3:00 AM59 °FPassing clouds.13 mph73%29.78 "Hg34 mi
2:00 AM60 °FPassing clouds.13 mph71%29.79 "Hg43 mi
Weather by CustomWeather, © 2015

See weather overviewHow to use our weather pages